TimePST,TemperatureF,Dew PointF,Humidity,Sea Level PressureIn,VisibilityMPH,Wind Direction,Wind SpeedMPH,Gust SpeedMPH,PrecipitationIn,Events,Conditions,WindDirDegrees,DateUTC
12:15 AM,37.4,37.4,100,30.05,10.0,SSE,8.1,-,N/A,,Mostly Cloudy,150,2013-01-10 08:15:00
12:35 AM,37.4,35.6,93,30.06,10.0,SSE,10.4,-,N/A,,Scattered Clouds,160,2013-01-10 08:35:00
12:55 AM,37.4,35.6,93,30.06,10.0,SE,9.2,-,0.02,,Overcast,130,2013-01-10 08:55:00
1:15 AM,37.4,35.6,93,30.06,10.0,SE,11.5,-,0.01,,Mostly Cloudy,140,2013-01-10 09:15:00
1:35 AM,37.4,35.6,93,30.06,10.0,SE,10.4,-,0.01,,Mostly Cloudy,130,2013-01-10 09:35:00
1:55 AM,37.4,35.6,93,30.07,10.0,ESE,8.1,-,0.01,,Overcast,120,2013-01-10 09:55:00
2:15 AM,37.4,37.4,100,30.08,7.0,SE,8.1,-,0.02,,Overcast,130,2013-01-10 10:15:00
2:35 AM,37.4,37.4,100,30.09,8.0,SSE,8.1,-,0.06,,Overcast,160,2013-01-10 10:35:00
2:55 AM,35.6,35.6,100,30.09,8.0,SE,8.1,-,0.09,,Overcast,140,2013-01-10 10:55:00
3:15 AM,35.6,35.6,100,30.09,9.0,SE,9.2,-,0.01,,Mostly Cloudy,140,2013-01-10 11:15:00
3:35 AM,37.4,37.4,100,30.11,10.0,East,5.8,-,0.03,,Overcast,90,2013-01-10 11:35:00
4:15 AM,37.4,37.4,100,30.10,10.0,SSE,8.1,-,N/A,,Overcast,150,2013-01-10 12:15:00
4:35 AM,35.6,35.6,100,30.09,10.0,SSE,11.5,-,N/A,,Mostly Cloudy,150,2013-01-10 12:35:00
4:55 AM,37.4,37.4,100,30.11,10.0,SE,8.1,-,N/A,,Mostly Cloudy,130,2013-01-10 12:55:00
5:15 AM,37.4,37.4,100,30.11,7.0,ESE,5.8,-,0.04,,Overcast,110,2013-01-10 13:15:00
5:55 AM,37.4,37.4,100,30.12,10.0,SSE,9.2,-,0.06,,Overcast,150,2013-01-10 13:55:00
6:35 AM,35.6,35.6,100,30.12,10.0,SSE,5.8,-,0.04,,Overcast,160,2013-01-10 14:35:00
6:55 AM,37.4,37.4,100,30.12,9.0,SE,6.9,-,0.05,,Overcast,140,2013-01-10 14:55:00
7:15 AM,37.4,37.4,100,30.13,10.0,SSE,8.1,-,N/A,,Overcast,160,2013-01-10 15:15:00
7:35 AM,37.4,37.4,100,30.14,8.0,SSE,5.8,-,0.01,,Overcast,150,2013-01-10 15:35:00
7:55 AM,37.4,37.4,100,30.15,9.0,Calm,Calm,-,0.07,,Overcast,0,2013-01-10 15:55:00
8:15 AM,37.4,35.6,93,30.15,10.0,SE,9.2,-,0.02,,Overcast,130,2013-01-10 16:15:00
8:35 AM,37.4,35.6,93,30.17,7.0,ESE,6.9,-,0.03,,Overcast,120,2013-01-10 16:35:00
8:55 AM,37.4,37.4,100,30.16,10.0,SSE,9.2,-,0.04,,Overcast,150,2013-01-10 16:55:00
9:15 AM,37.4,37.4,100,30.17,10.0,ESE,9.2,-,0.01,,Overcast,120,2013-01-10 17:15:00
9:35 AM,37.4,37.4,100,30.18,8.0,SSE,10.4,-,0.02,,Overcast,150,2013-01-10 17:35:00
9:55 AM,37.4,35.6,93,30.17,10.0,SSE,9.2,-,0.03,,Mostly Cloudy,150,2013-01-10 17:55:00
10:15 AM,37.4,35.6,93,30.18,9.0,SE,10.4,-,0.02,,Overcast,140,2013-01-10 18:15:00
10:35 AM,37.4,37.4,100,30.18,9.0,SSE,10.4,-,0.02,,Mostly Cloudy,150,2013-01-10 18:35:00
10:55 AM,37.4,37.4,100,30.18,9.0,ESE,10.4,-,0.03,,Mostly Cloudy,120,2013-01-10 18:55:00
11:15 AM,37.4,37.4,100,30.17,9.0,SE,13.8,-,0.04,,Overcast,140,2013-01-10 19:15:00
11:35 AM,37.4,37.4,100,30.18,7.0,SSE,4.6,-,0.08,,Overcast,150,2013-01-10 19:35:00
11:55 AM,37.4,37.4,100,30.16,9.0,SE,10.4,-,0.10,,Overcast,140,2013-01-10 19:55:00
12:15 PM,39.2,39.2,100,30.16,9.0,ESE,4.6,-,0.04,,Overcast,120,2013-01-10 20:15:00
12:35 PM,41.0,39.2,93,30.15,10.0,SW,5.8,-,0.05,,Overcast,220,2013-01-10 20:35:00
12:55 PM,41.0,39.2,93,30.16,7.0,Calm,Calm,-,0.06,,Overcast,0,2013-01-10 20:55:00
1:15 PM,42.8,39.2,87,30.15,9.0,Calm,Calm,-,0.01,,Mostly Cloudy,0,2013-01-10 21:15:00
1:35 PM,42.8,41.0,93,30.15,6.0,North,13.8,24.2,0.05,,Overcast,10,2013-01-10 21:35:00
1:55 PM,42.8,41.0,93,30.15,8.0,NW,12.7,19.6,0.09,,Overcast,310,2013-01-10 21:55:00
2:15 PM,44.6,41.0,87,30.15,8.0,North,13.8,19.6,N/A,,Overcast,350,2013-01-10 22:15:00
2:35 PM,44.6,41.0,87,30.16,8.0,NW,18.4,-,0.01,,Overcast,320,2013-01-10 22:35:00
2:55 PM,46.4,39.2,76,30.16,10.0,NNW,17.3,28.8,0.01,,Overcast,340,2013-01-10 22:55:00
3:15 PM,44.6,39.2,81,30.17,10.0,NW,24.2,32.2,N/A,,Mostly Cloudy,320,2013-01-10 23:15:00
3:35 PM,42.8,39.2,87,30.17,6.0,NNW,19.6,32.2,0.01,,Mostly Cloudy,330,2013-01-10 23:35:00
3:55 PM,44.6,39.2,81,30.17,10.0,NNW,18.4,23.0,0.02,,Overcast,340,2013-01-10 23:55:00
4:15 PM,46.4,39.2,76,30.17,10.0,North,18.4,28.8,N/A,,Overcast,350,2013-01-11 00:15:00
4:35 PM,44.6,37.4,76,30.18,10.0,NNW,21.9,27.6,N/A,,Overcast,340,2013-01-11 00:35:00
4:55 PM,46.4,35.6,66,30.18,10.0,NNW,16.1,27.6,N/A,,Mostly Cloudy,330,2013-01-11 00:55:00
5:15 PM,44.6,37.4,76,30.18,10.0,NW,16.1,28.8,N/A,,Overcast,320,2013-01-11 01:15:00
5:35 PM,44.6,35.6,71,30.18,10.0,NNW,17.3,21.9,N/A,,Scattered Clouds,340,2013-01-11 01:35:00
5:55 PM,44.6,37.4,76,30.19,10.0,NW,18.4,24.2,N/A,,Mostly Cloudy,320,2013-01-11 01:55:00
6:15 PM,46.4,35.6,66,30.19,10.0,NNW,19.6,24.2,N/A,,Overcast,340,2013-01-11 02:15:00
6:55 PM,46.4,35.6,66,30.20,10.0,NNW,20.7,29.9,N/A,,Mostly Cloudy,340,2013-01-11 02:55:00
7:15 PM,46.4,35.6,66,30.20,10.0,NNW,15.0,24.2,N/A,,Mostly Cloudy,340,2013-01-11 03:15:00
7:35 PM,44.6,37.4,76,30.20,10.0,NNW,17.3,23.0,N/A,,Mostly Cloudy,340,2013-01-11 03:35:00
7:55 PM,44.6,37.4,76,30.20,10.0,NNW,15.0,18.4,N/A,,Mostly Cloudy,340,2013-01-11 03:55:00
8:15 PM,46.4,35.6,66,30.20,10.0,NNW,19.6,-,N/A,,Overcast,330,2013-01-11 04:15:00
8:35 PM,42.8,35.6,76,30.20,10.0,NNW,12.7,-,0.01,,Mostly Cloudy,330,2013-01-11 04:35:00
9:15 PM,42.8,37.4,81,30.21,10.0,North,10.4,24.2,N/A,,Overcast,10,2013-01-11 05:15:00
9:35 PM,42.8,35.6,76,30.22,8.0,NW,19.6,31.1,N/A,,Mostly Cloudy,320,2013-01-11 05:35:00
9:55 PM,42.8,37.4,81,30.21,10.0,NW,10.4,-,N/A,,Mostly Cloudy,310,2013-01-11 05:55:00
10:15 PM,41.0,37.4,87,30.22,10.0,North,13.8,19.6,N/A,,Overcast,10,2013-01-11 06:15:00
10:35 PM,42.8,37.4,81,30.21,10.0,North,8.1,-,N/A,,Mostly Cloudy,350,2013-01-11 06:35:00
10:55 PM,44.6,37.4,76,30.21,10.0,NNW,12.7,-,N/A,,Scattered Clouds,330,2013-01-11 06:55:00
11:15 PM,44.6,37.4,76,30.21,10.0,WNW,18.4,24.2,N/A,,Mostly Cloudy,300,2013-01-11 07:15:00
11:35 PM,42.8,39.2,87,30.21,10.0,North,4.6,-,N/A,,Overcast,350,2013-01-11 07:35:00
11:55 PM,44.6,35.6,71,30.21,10.0,NNW,12.7,20.7,N/A,,Mostly Cloudy,340,2013-01-11 07:55:00